User: anonymous
Location: Caltech
(34.1382°N, 118.1253°W)
Time: 22:14:54
(UTC-07:00)
Language:

Cosmos 1833 - Orbit

View from above orbital plane
View from above orbital plane
View from above satellite
View from above satellite

Ground track
Ground track

The orbit data is extracted from the following two-line orbital elements,

1 17589U 87027A   14238.12811447  .00000032  00000-0  43081-4 0  7915
2 17589 070.9121 180.9292 0008084 038.9151 047.8298 14.12803763415384
Epoch (UTC): 26 August 2014 03:04:29
Eccentricity: 0.0008084
inclination: 70.9121°
perigee height: 844 km
apogee height: 855 km
right ascension of ascending node: 180.9292°
argument of perigee: 38.9151°
revolutions per day: 14.12803763
mean anomaly at epoch: 47.8298°
orbit number at epoch: 41538

The dashed part of the orbit path shows where the satellite is in the earth's shadow,  

DLR